QPF
0.15 0.16 0.16 0.17 0.14 0.11 0.10 0.08 0.08 0.09 0.09 0.09 0.10 0.10 0.09 0.06 0.06 0.06 0.06 0.06 0.06 0.05 0.06 0.06 0.06 0.06 0.06 0.06 0.04 0.04 0.03 0.03 0.03 0.03 0.02 0.02 0.02 0.02 0.02 0.01 0.01 0.01 0.01
0.16 0.16 0.14 0.12 0.10 0.09 0.08 0.07 0.07 0.08 0.07 0.07 0.07 0.07 0.06 0.05 0.05 0.05 0.04 0.05 0.05 0.04 0.05 0.05 0.06 0.06 0.06 0.06 0.05 0.04 0.03 0.03 0.03 0.03 0.03 0.02 0.02 0.02 0.02 0.01 0.01 0.02 0.01
0.19 0.17 0.13 0.10 0.08 0.07 0.07 0.08 0.09 0.08 0.07 0.06 0.05 0.05 0.04 0.03 0.03 0.03 0.03 0.03 0.03 0.03 0.04 0.04 0.05 0.06 0.07 0.07 0.06 0.05 0.04 0.03 0.03 0.03 0.02 0.02 0.02 0.02 0.02 0.01 0.01 0.02 0.02
0.15 0.12 0.10 0.10 0.07 0.06 0.07 0.07 0.07 0.08 0.07 0.07 0.04 0.04 0.03 0.02 0.02 0.02 0.02 0.02 0.02 0.03 0.03 0.04 0.04 0.05 0.07 0.08 0.07 0.06 0.05 0.03 0.03 0.03 0.03 0.02 0.02 0.02 0.02 0.02 0.01 0.01 0.01
0.10 0.10 0.09 0.08 0.07 0.05 0.05 0.07 0.06 0.07 0.06 0.06 0.05 0.04 0.03 0.02 0.02 0.02 0.02 0.02 0.02 0.02 0.02 0.03 0.04 0.04 0.05 0.07 0.08 0.08 0.06 0.05 0.04 0.04 0.03 0.02 0.02 0.02 0.02 0.02 0.01 0.01 0.01
0.07 0.07 0.07 0.05 0.04 0.03 0.04 0.06 0.06 0.06 0.05 0.05 0.04 0.04 0.03 0.02 0.02 0.03 0.03 0.02 0.02 0.02 0.02 0.03 0.03 0.03 0.03 0.04 0.06 0.07 0.07 0.07 0.06 0.05 0.04 0.03 0.02 0.02 0.01 0.01 0.01 0.01 0.01
0.07 0.06 0.04 0.03 0.03 0.02 0.02 0.05 0.06 0.06 0.06 0.06 0.05 0.04 0.03 0.03 0.03 0.03 0.04 0.03 0.03 0.03 0.03 0.03 0.03 0.03 0.03 0.03 0.04 0.05 0.06 0.06 0.06 0.06 0.05 0.03 0.02 0.02 0.02 0.02 0.01 0.01 0.01
0.07 0.05 0.04 0.04 0.03 0.02 0.02 0.04 0.05 0.05 0.05 0.06 0.05 0.05 0.04 0.03 0.03 0.03 0.04 0.04 0.04 0.04 0.04 0.03 0.03 0.03 0.03 0.03 0.03 0.04 0.05 0.05 0.05 0.05 0.05 0.04 0.03 0.02 0.02 0.02 0.02 0.02 0.01
0.07 0.06 0.05 0.04 0.04 0.03 0.03 0.04 0.06 0.05 0.04 0.05 0.04 0.05 0.04 0.03 0.02 0.03 0.03 0.02 0.03 0.03 0.02 0.02 0.02 0.02 0.03 0.03 0.03 0.03 0.03 0.04 0.04 0.04 0.04 0.04 0.05 0.05 0.05 0.04 0.03 0.03 0.02
0.05 0.05 0.04 0.04 0.04 0.03 0.03 0.04 0.06 0.05 0.04 0.04 0.04 0.04 0.03 0.02 0.03 0.03 0.02 0.02 0.02 0.02 0.02 0.02 0.03 0.03 0.03 0.03 0.03 0.03 0.03 0.03 0.04 0.05 0.05 0.04 0.04 0.05 0.06 0.05 0.04 0.04 0.03
0.04 0.04 0.04 0.04 0.03 0.03 0.02 0.03 0.05 0.04 0.03 0.04 0.03 0.03 0.02 0.02 0.02 0.02 0.02 0.02 0.02 0.02 0.02 0.02 0.02 0.03 0.04 0.03 0.03 0.03 0.04 0.03 0.03 0.05 0.06 0.05 0.05 0.04 0.04 0.04 0.04 0.04 0.04
0.04 0.04 0.04 0.04 0.03 0.02 0.02 0.03 0.04 0.03 0.03 0.04 0.04 0.03 0.03 0.02 0.02 0.02 0.02 0.02 0.02 0.02 0.01 0.01 0.02 0.02 0.02 0.03 0.03 0.03 0.04 0.05 0.05 0.06 0.06 0.06 0.05 0.04 0.03 0.02 0.02 0.02 0.03
0.04 0.04 0.04 0.03 0.03 0.02 0.01 0.02 0.04 0.04 0.03 0.04 0.03 0.03 0.03 0.02 0.03 0.03 0.02 0.02 0.02 0.01 0.01 0.01 0.02 0.02 0.01 0.02 0.03 0.04 0.05 0.06 0.07 0.07 0.06 0.05 0.05 0.04 0.04 0.03 0.03 0.03 0.02
0.03 0.03 0.04 0.03 0.03 0.02 0.02 0.02 0.03 0.04 0.02 0.03 0.02 0.02 0.02 0.02 0.02 0.02 0.01 0.01 0.01 0.01 0.01 0.02 0.01 0.01 0.01 0.02 0.03 0.05 0.05 0.06 0.07 0.07 0.06 0.05 0.05 0.06 0.06 0.05 0.04 0.03 0.03
0.03 0.03 0.03 0.03 0.03 0.03 0.03 0.02 0.03 0.04 0.02 0.02 0.02 0.01 0.01 0.02 0.02 0.02 0.02 0.01 0.01 0.02 0.01 0.01 0.01 0.01 0.02 0.02 0.03 0.04 0.05 0.06 0.06 0.06 0.06 0.05 0.05 0.06 0.05 0.05 0.04 0.04 0.03
0.03 0.03 0.03 0.03 0.03 0.03 0.02 0.03 0.03 0.04 0.03 0.02 0.03 0.02 0.01 0.02 0.03 0.03 0.02 0.02 0.02 0.02 0.01 0.01 0.01 0.01 0.02 0.02 0.03 0.04 0.04 0.04 0.05 0.06 0.06 0.05 0.05 0.05 0.04 0.04 0.04 0.03 0.03
0.03 0.03 0.03 0.03 0.03 0.02 0.01 0.01 0.02 0.02 0.02 0.02 0.02 0.01 0.01 0.01 0.02 0.02 0.02 0.02 0.02 0.02 0.01 0.01 0.01 0.01 0.02 0.02 0.03 0.03 0.03 0.03 0.04 0.04 0.04 0.05 0.04 0.04 0.04 0.04 0.03 0.03 0.03
0.03 0.03 0.03 0.03 0.02 0.02 0.01 0.01 0.01 0.01 0.01 0.01 0.01 0.01 0.01 0.01 0.02 0.02 0.02 0.02 0.01 0.01 0.01 0.01 0.01 0.01 0.02 0.02 0.02 0.02 0.03 0.03 0.03 0.03 0.04 0.04 0.04 0.04 0.04 0.04 0.03 0.03 0.03
0.02 0.03 0.03 0.03 0.03 0.02 0.01 0.01 0.01 0.01 0.01 0.01 0.01 0.01 0.01 0.01 0.01 0.02 0.02 0.01 0.01 0.01 0.01 0.01 0.01 0.01 0.01 0.02 0.02 0.02 0.02 0.03 0.03 0.03 0.03 0.04 0.04 0.04 0.04 0.04 0.04 0.03 0.03
0.02 0.03 0.03 0.03 0.02 0.02 0.02 0.01 0.01 0.01 0.01 0.01 0.01 0.01 0.01 0.01 0.01 0.02 0.02 0.01 0.02 0.01 0.01 0.01 0.01 0.01 0.01 0.01 0.01 0.02 0.02 0.02 0.03 0.04 0.04 0.04 0.04 0.04 0.04 0.05 0.05 0.04 0.03
0.02 0.02 0.02 0.02 0.02 0.02 0.01 0.01 0.01 0.01 0.01 0.01 0.01 0.01 0.01 0.01 0.01 0.01 0.01 0.01 0.02 0.02 0.01 0.01 0.01 0.01 0.01 0.01 0.01 0.01 0.02 0.02 0.03 0.03 0.04 0.04 0.03 0.03 0.03 0.04 0.05 0.05 0.04
0.01 0.01 0.02 0.01 0.01 0.01 0.01 0.01 0.01 0.01 0.01 0.01 0.01 0.01 0.01 0.01 0.01 0.01 0.01 0.01 0.02 0.02 0.02 0.01 0.01 0.01 0.01 0.01 0.01 0.01 0.01 0.02 0.02 0.03 0.03 0.03 0.03 0.03 0.03 0.03 0.03 0.04 0.04
0.01 0.01 0.01 0.01 0.01 0.01 0.01 0.02 0.01 0.01 0.01 0.01 0.01 0.01 0.01 0.01 0.01 0.02 0.02 0.02 0.02 0.02 0.02 0.01 0.01 0.01 0.00 0.01 0.01 0.01 0.02 0.02 0.02 0.02 0.03 0.03 0.03 0.03 0.04 0.04 0.04 0.04 0.04
0.01 0.01 0.01 0.01 0.01 0.01 0.01 0.01 0.02 0.01 0.01 0.01 0.01 0.01 0.01 0.01 0.02 0.02 0.02 0.02 0.02 0.02 0.01 0.01 0.01 0.01 0.00 0.00 0.01 0.01 0.01 0.02 0.02 0.02 0.02 0.03 0.03 0.03 0.03 0.04 0.04 0.04 0.04
0.01 0.01 0.01 0.01 0.01 0.01 0.02 0.01 0.01 0.01 0.02 0.01 0.01 0.01 0.01 0.01 0.02 0.02 0.02 0.02 0.02 0.02 0.02 0.01 0.01 0.01 0.01 0.00 0.01 0.01 0.01 0.01 0.02 0.02 0.03 0.03 0.03 0.03 0.03 0.03 0.03 0.03 0.04
0.01 0.01 0.01 0.01 0.01 0.01 0.02 0.02 0.02 0.01 0.01 0.01 0.01 0.01 0.01 0.01 0.01 0.01 0.02 0.02 0.02 0.02 0.02 0.02 0.01 0.01 0.01 0.01 0.01 0.01 0.01 0.01 0.02 0.02 0.02 0.03 0.03 0.02 0.02 0.02 0.03 0.03 0.03
MSLP
1000.87 1000.43 1000.32 1000.54 1001.04 1001.79 1002.75 1003.85 1005.05 1006.29 1007.52 1008.71 1009.84 1010.91 1011.91 1012.87 1013.80 1014.72 1015.64 1016.55 1017.43 1018.26 1018.99 1019.59 1020.05 1020.35 1020.52 1020.60 1020.62 1020.65 1020.73 1020.88 1021.11 1021.40 1021.72 1022.03 1022.26 1022.37 1022.35 1022.18 1021.87 1021.45 1020.96
1000.67 1000.26 1000.20 1000.47 1001.03 1001.83 1002.82 1003.94 1005.14 1006.36 1007.57 1008.74 1009.85 1010.90 1011.90 1012.87 1013.82 1014.76 1015.69 1016.62 1017.50 1018.32 1019.05 1019.64 1020.10 1020.42 1020.63 1020.75 1020.85 1020.95 1021.11 1021.34 1021.63 1021.97 1022.31 1022.61 1022.81 1022.88 1022.79 1022.54 1022.15 1021.65 1021.07
1000.62 1000.26 1000.26 1000.57 1001.16 1001.99 1002.99 1004.10 1005.28 1006.47 1007.65 1008.79 1009.88 1010.92 1011.92 1012.90 1013.86 1014.82 1015.78 1016.72 1017.61 1018.43 1019.15 1019.76 1020.23 1020.58 1020.83 1021.02 1021.19 1021.37 1021.61 1021.90 1022.24 1022.60 1022.95 1023.22 1023.38 1023.38 1023.22 1022.89 1022.42 1021.83 1021.18
1000.68 1000.40 1000.45 1000.81 1001.44 1002.28 1003.28 1004.37 1005.52 1006.68 1007.82 1008.93 1010.00 1011.03 1012.03 1013.02 1014.01 1014.98 1015.95 1016.90 1017.80 1018.63 1019.36 1019.97 1020.47 1020.86 1021.16 1021.40 1021.63 1021.88 1022.17 1022.51 1022.87 1023.24 1023.57 1023.81 1023.92 1023.86 1023.63 1023.24 1022.70 1022.05 1021.34
1000.81 1000.61 1000.74 1001.16 1001.83 1002.69 1003.68 1004.76 1005.88 1007.01 1008.13 1009.21 1010.26 1011.29 1012.29 1013.29 1014.29 1015.28 1016.26 1017.21 1018.12 1018.95 1019.68 1020.31 1020.82 1021.24 1021.58 1021.87 1022.14 1022.43 1022.75 1023.11 1023.48 1023.83 1024.13 1024.33 1024.39 1024.30 1024.02 1023.59 1023.02 1022.34 1021.59
1000.94 1000.85 1001.08 1001.57 1002.29 1003.18 1004.19 1005.26 1006.37 1007.48 1008.57 1009.64 1010.68 1011.70 1012.71 1013.71 1014.72 1015.71 1016.70 1017.66 1018.56 1019.38 1020.12 1020.75 1021.28 1021.71 1022.07 1022.38 1022.68 1022.99 1023.31 1023.66 1024.01 1024.33 1024.60 1024.76 1024.79 1024.67 1024.39 1023.95 1023.37 1022.69 1021.94
1001.03 1001.07 1001.41 1002.00 1002.79 1003.73 1004.76 1005.85 1006.96 1008.06 1009.15 1010.20 1011.24 1012.26 1013.27 1014.27 1015.27 1016.27 1017.25 1018.20 1019.09 1019.91 1020.64 1021.27 1021.80 1022.23 1022.60 1022.92 1023.21 1023.51 1023.82 1024.13 1024.44 1024.73 1024.96 1025.09 1025.10 1024.98 1024.70 1024.28 1023.74 1023.09 1022.36
1001.12 1001.30 1001.76 1002.45 1003.32 1004.31 1005.39 1006.50 1007.62 1008.73 1009.82 1010.87 1011.90 1012.92 1013.92 1014.92 1015.91 1016.90 1017.87 1018.80 1019.67 1020.48 1021.19 1021.81 1022.34 1022.77 1023.13 1023.44 1023.72 1023.98 1024.25 1024.53 1024.79 1025.03 1025.21 1025.32 1025.32 1025.20 1024.95 1024.57 1024.07 1023.47 1022.78
1001.27 1001.58 1002.16 1002.95 1003.90 1004.95 1006.07 1007.22 1008.35 1009.47 1010.56 1011.61 1012.64 1013.65 1014.64 1015.62 1016.59 1017.56 1018.50 1019.41 1020.26 1021.05 1021.75 1022.36 1022.87 1023.29 1023.64 1023.93 1024.19 1024.42 1024.65 1024.87 1025.07 1025.26 1025.39 1025.47 1025.45 1025.33 1025.10 1024.75 1024.30 1023.74 1023.10
1001.61 1002.04 1002.71 1003.58 1004.59 1005.70 1006.85 1008.01 1009.16 1010.29 1011.37 1012.42 1013.43 1014.42 1015.38 1016.34 1017.28 1018.22 1019.13 1020.01 1020.84 1021.60 1022.28 1022.88 1023.39 1023.80 1024.15 1024.42 1024.65 1024.85 1025.03 1025.19 1025.33 1025.45 1025.53 1025.56 1025.51 1025.37 1025.14 1024.80 1024.37 1023.85 1023.23
1002.26 1002.77 1003.51 1004.43 1005.48 1006.60 1007.77 1008.94 1010.08 1011.19 1012.26 1013.29 1014.27 1015.23 1016.16 1017.08 1017.99 1018.88 1019.75 1020.60 1021.39 1022.14 1022.81 1023.39 1023.90 1024.31 1024.65 1024.92 1025.12 1025.29 1025.43 1025.53 1025.61 1025.66 1025.67 1025.62 1025.51 1025.33 1025.06 1024.71 1024.28 1023.75 1023.15
1003.31 1003.85 1004.62 1005.55 1006.60 1007.72 1008.87 1010.02 1011.14 1012.22 1013.26 1014.25 1015.20 1016.11 1017.00 1017.87 1018.72 1019.56 1020.39 1021.19 1021.96 1022.67 1023.33 1023.91 1024.41 1024.83 1025.17 1025.44 1025.63 1025.77 1025.87 1025.92 1025.93 1025.90 1025.83 1025.70 1025.51 1025.25 1024.91 1024.51 1024.03 1023.49 1022.88
1004.77 1005.32 1006.08 1006.98 1007.99 1009.07 1010.17 1011.28 1012.35 1013.39 1014.38 1015.32 1016.22 1017.08 1017.91 1018.72 1019.51 1020.30 1021.07 1021.83 1022.55 1023.24 1023.88 1024.45 1024.95 1025.38 1025.72 1025.99 1026.18 1026.30 1026.36 1026.36 1026.31 1026.20 1026.03 1025.80 1025.51 1025.15 1024.73 1024.25 1023.71 1023.13 1022.49
1006.59 1007.12 1007.83 1008.67 1009.62 1010.63 1011.66 1012.70 1013.71 1014.69 1015.62 1016.51 1017.35 1018.15 1018.92 1019.66 1020.39 1021.11 1021.82 1022.52 1023.20 1023.86 1024.47 1025.03 1025.52 1025.95 1026.29 1026.56 1026.75 1026.85 1026.88 1026.84 1026.73 1026.54 1026.28 1025.96 1025.56 1025.11 1024.59 1024.02 1023.41 1022.77 1022.11
1008.66 1009.13 1009.77 1010.54 1011.40 1012.32 1013.28 1014.24 1015.19 1016.10 1016.97 1017.80 1018.58 1019.32 1020.02 1020.70 1021.36 1022.01 1022.65 1023.29 1023.91 1024.52 1025.09 1025.63 1026.11 1026.52 1026.87 1027.13 1027.31 1027.40 1027.40 1027.32 1027.16 1026.91 1026.58 1026.17 1025.68 1025.14 1024.54 1023.90 1023.23 1022.55 1021.86
1010.78 1011.19 1011.76 1012.44 1013.22 1014.06 1014.94 1015.83 1016.71 1017.57 1018.39 1019.16 1019.88 1020.56 1021.21 1021.82 1022.41 1022.98 1023.55 1024.12 1024.68 1025.22 1025.75 1026.24 1026.69 1027.08 1027.41 1027.66 1027.82 1027.90 1027.88 1027.77 1027.57 1027.27 1026.89 1026.42 1025.88 1025.28 1024.63 1023.94 1023.24 1022.54 1021.85
1012.81 1013.16 1013.65 1014.26 1014.96 1015.73 1016.54 1017.38 1018.22 1019.03 1019.80 1020.54 1021.21 1021.84 1022.43 1022.97 1023.49 1024.00 1024.49 1024.98 1025.46 1025.94 1026.41 1026.85 1027.25 1027.61 1027.90 1028.13 1028.27 1028.32 1028.29 1028.15 1027.93 1027.61 1027.20 1026.71 1026.15 1025.53 1024.87 1024.18 1023.48 1022.79 1022.12
1014.61 1014.92 1015.35 1015.90 1016.55 1017.27 1018.04 1018.84 1019.65 1020.43 1021.18 1021.88 1022.52 1023.11 1023.64 1024.13 1024.59 1025.02 1025.44 1025.85 1026.25 1026.66 1027.05 1027.43 1027.78 1028.08 1028.33 1028.52 1028.63 1028.66 1028.60 1028.45 1028.22 1027.89 1027.49 1027.01 1026.46 1025.87 1025.23 1024.58 1023.92 1023.28 1022.66
1016.16 1016.44 1016.83 1017.35 1017.96 1018.66 1019.41 1020.19 1020.98 1021.75 1022.48 1023.16 1023.78 1024.33 1024.82 1025.26 1025.65 1026.01 1026.36 1026.69 1027.02 1027.35 1027.67 1027.98 1028.26 1028.51 1028.70 1028.84 1028.91 1028.91 1028.82 1028.66 1028.42 1028.11 1027.73 1027.28 1026.79 1026.25 1025.69 1025.11 1024.52 1023.95 1023.40
1017.49 1017.74 1018.12 1018.62 1019.22 1019.90 1020.65 1021.43 1022.21 1022.98 1023.70 1024.37 1024.96 1025.48 1025.93 1026.32 1026.66 1026.96 1027.24 1027.50 1027.76 1028.01 1028.26 1028.49 1028.70 1028.89 1029.02 1029.11 1029.13 1029.09 1028.98 1028.80 1028.56 1028.27 1027.92 1027.53 1027.10 1026.65 1026.17 1025.69 1025.21 1024.73 1024.26
1018.67 1018.92 1019.30 1019.79 1020.39 1021.07 1021.81 1022.59 1023.37 1024.13 1024.84 1025.49 1026.06 1026.55 1026.96 1027.30 1027.59 1027.84 1028.06 1028.26 1028.45 1028.63 1028.81 1028.98 1029.12 1029.23 1029.30 1029.33 1029.30 1029.22 1029.08 1028.89 1028.65 1028.37 1028.07 1027.73 1027.39 1027.03 1026.66 1026.29 1025.92 1025.54 1025.16
1019.81 1020.07 1020.45 1020.94 1021.54 1022.22 1022.96 1023.73 1024.50 1025.24 1025.93 1026.55 1027.09 1027.54 1027.91 1028.21 1028.45 1028.65 1028.81 1028.96 1029.09 1029.21 1029.33 1029.43 1029.50 1029.55 1029.56 1029.53 1029.45 1029.32 1029.15 1028.95 1028.71 1028.46 1028.19 1027.92 1027.65 1027.39 1027.13 1026.87 1026.61 1026.35 1026.07
1021.01 1021.28 1021.65 1022.14 1022.73 1023.39 1024.11 1024.86 1025.60 1026.31 1026.96 1027.55 1028.04 1028.45 1028.78 1029.04 1029.23 1029.38 1029.50 1029.59 1029.67 1029.74 1029.80 1029.84 1029.86 1029.84 1029.80 1029.71 1029.58 1029.42 1029.22 1029.01 1028.77 1028.54 1028.32 1028.11 1027.92 1027.74 1027.59 1027.44 1027.29 1027.13 1026.96
1022.30 1022.57 1022.94 1023.41 1023.97 1024.61 1025.29 1025.99 1026.69 1027.35 1027.95 1028.48 1028.92 1029.28 1029.57 1029.78 1029.93 1030.03 1030.11 1030.16 1030.19 1030.21 1030.22 1030.20 1030.17 1030.10 1030.00 1029.87 1029.71 1029.51 1029.30 1029.08 1028.87 1028.66 1028.48 1028.33 1028.22 1028.13 1028.07 1028.02 1027.98 1027.93 1027.85
1023.67 1023.93 1024.28 1024.73 1025.26 1025.84 1026.47 1027.11 1027.74 1028.33 1028.86 1029.33 1029.72 1030.03 1030.26 1030.43 1030.54 1030.61 1030.64 1030.65 1030.65 1030.62 1030.58 1030.52 1030.44 1030.33 1030.19 1030.02 1029.83 1029.62 1029.41 1029.20 1029.01 1028.84 1028.71 1028.63 1028.59 1028.58 1028.61 1028.66 1028.71 1028.75 1028.76
1025.05 1025.30 1025.63 1026.04 1026.52 1027.04 1027.60 1028.16 1028.71 1029.22 1029.69 1030.09 1030.42 1030.67 1030.86 1030.99 1031.07 1031.11 1031.11 1031.09 1031.04 1030.98 1030.90 1030.80 1030.67 1030.52 1030.35 1030.16 1029.96 1029.75 1029.55 1029.36 1029.21 1029.09 1029.03 1029.01 1029.04 1029.12 1029.23 1029.36 1029.50 1029.62 1029.71
Thickness
5496 5496 5498 5499 5499 5499 5500 5500 5500 5501 5502 5503 5505 5505 5507 5508 5508 5509 5510 5510 5510 5510 5510 5510 5510 5509 5509 5509 5510 5510 5511 5511 5511 5514 5515 5516 5517 5518 5519 5519 5519 5521 5521
5491 5491 5492 5492 5493 5493 5493 5494 5494 5495 5495 5496 5497 5499 5499 5500 5501 5501 5501 5502 5502 5501 5500 5501 5501 5500 5500 5500 5500 5501 5502 5502 5501 5503 5506 5507 5508 5509 5510 5510 5512 5513 5513
5484 5484 5485 5485 5485 5486 5486 5487 5487 5488 5488 5489 5489 5490 5492 5492 5493 5493 5494 5493 5493 5491 5492 5492 5491 5491 5492 5492 5492 5492 5492 5493 5493 5494 5496 5498 5499 5499 5500 5502 5503 5504 5504
5477 5478 5477 5477 5478 5478 5478 5479 5480 5481 5481 5481 5482 5482 5483 5484 5484 5485 5486 5485 5483 5483 5483 5483 5483 5483 5484 5484 5484 5483 5483 5484 5485 5486 5487 5488 5489 5489 5490 5491 5494 5494 5495
5469 5470 5470 5470 5470 5469 5470 5472 5473 5473 5473 5474 5474 5474 5475 5476 5477 5477 5478 5477 5476 5475 5475 5474 5475 5475 5476 5476 5475 5475 5475 5475 5476 5476 5477 5478 5479 5479 5479 5480 5482 5484 5485
5461 5461 5461 5461 5461 5461 5462 5464 5465 5465 5465 5466 5466 5466 5467 5468 5470 5471 5471 5469 5468 5467 5467 5466 5466 5467 5467 5467 5467 5467 5468 5467 5468 5468 5468 5469 5469 5469 5469 5469 5470 5472 5476
5452 5453 5453 5453 5454 5454 5455 5455 5456 5457 5457 5457 5458 5458 5459 5460 5462 5463 5463 5461 5459 5458 5457 5457 5458 5458 5457 5457 5458 5458 5458 5459 5460 5459 5459 5460 5461 5461 5460 5461 5461 5460 5462
5445 5445 5446 5446 5446 5446 5447 5447 5448 5448 5449 5449 5450 5451 5452 5452 5454 5455 5455 5453 5451 5449 5449 5448 5448 5447 5448 5448 5449 5449 5449 5450 5451 5451 5452 5453 5453 5452 5451 5451 5451 5451 5452
5438 5438 5438 5438 5439 5439 5439 5440 5440 5441 5441 5441 5442 5442 5443 5444 5445 5446 5446 5444 5442 5440 5440 5439 5439 5438 5440 5441 5441 5440 5442 5442 5443 5444 5444 5444 5444 5444 5443 5442 5442 5443 5445
5431 5431 5431 5431 5432 5432 5432 5433 5433 5433 5434 5434 5435 5435 5435 5435 5436 5437 5437 5435 5434 5432 5431 5431 5430 5431 5432 5433 5432 5431 5432 5433 5434 5435 5435 5435 5435 5435 5435 5435 5434 5434 5434
5424 5424 5424 5424 5425 5425 5425 5425 5425 5426 5426 5425 5426 5426 5426 5426 5426 5427 5427 5426 5424 5423 5422 5422 5422 5422 5423 5424 5424 5423 5423 5424 5425 5425 5425 5426 5427 5427 5428 5428 5427 5427 5426
5416 5416 5416 5416 5417 5417 5417 5417 5417 5417 5417 5416 5416 5416 5416 5416 5416 5416 5417 5417 5416 5414 5413 5412 5413 5413 5414 5414 5415 5415 5415 5415 5415 5416 5417 5417 5418 5419 5420 5420 5421 5421 5420
5407 5407 5407 5408 5408 5409 5408 5408 5407 5407 5407 5407 5406 5406 5406 5406 5405 5406 5407 5406 5405 5404 5403 5403 5403 5403 5404 5403 5403 5404 5404 5405 5406 5407 5408 5408 5409 5410 5411 5413 5414 5415 5415
5399 5398 5398 5398 5398 5399 5399 5399 5398 5398 5398 5398 5398 5398 5397 5396 5395 5396 5396 5395 5394 5393 5392 5392 5393 5393 5392 5392 5392 5392 5393 5394 5396 5397 5398 5399 5400 5401 5403 5404 5405 5407 5408
5390 5389 5389 5389 5389 5389 5389 5388 5389 5389 5389 5390 5390 5389 5388 5387 5387 5388 5387 5386 5384 5383 5382 5381 5381 5381 5380 5380 5381 5381 5382 5383 5385 5387 5388 5390 5392 5393 5394 5396 5397 5397 5398
5382 5380 5379 5379 5379 5379 5379 5379 5380 5380 5381 5381 5381 5381 5380 5379 5379 5379 5378 5377 5376 5375 5373 5371 5370 5370 5370 5370 5370 5370 5371 5372 5374 5376 5378 5380 5382 5384 5386 5387 5389 5389 5390
5373 5372 5371 5370 5370 5370 5370 5370 5370 5371 5371 5371 5371 5371 5371 5370 5370 5369 5368 5367 5366 5364 5361 5360 5360 5360 5359 5359 5359 5359 5360 5362 5363 5366 5368 5370 5372 5374 5376 5378 5380 5382 5383
5364 5364 5363 5361 5361 5360 5360 5360 5361 5361 5360 5359 5360 5360 5360 5360 5360 5359 5358 5356 5354 5352 5350 5349 5348 5348 5348 5348 5348 5349 5351 5353 5355 5356 5358 5361 5362 5365 5367 5370 5372 5374 5375
5356 5355 5354 5353 5352 5352 5351 5351 5351 5350 5349 5348 5348 5348 5349 5349 5349 5348 5347 5344 5343 5341 5339 5338 5337 5337 5337 5338 5339 5340 5341 5343 5345 5347 5348 5351 5353 5356 5359 5361 5364 5366 5367
5348 5348 5346 5345 5343 5343 5342 5342 5341 5340 5339 5338 5337 5337 5337 5337 5336 5335 5335 5334 5332 5331 5329 5328 5327 5327 5328 5328 5329 5330 5332 5333 5335 5337 5339 5341 5344 5347 5350 5353 5356 5357 5359
5340 5339 5338 5337 5335 5334 5333 5332 5331 5330 5329 5328 5327 5327 5328 5328 5327 5325 5325 5324 5323 5321 5320 5319 5319 5319 5319 5319 5320 5321 5322 5324 5325 5328 5330 5332 5335 5338 5342 5345 5348 5350 5352
5332 5330 5329 5328 5327 5326 5325 5324 5322 5321 5319 5318 5318 5317 5319 5317 5316 5315 5315 5314 5313 5312 5312 5311 5310 5310 5311 5311 5312 5313 5314 5315 5317 5319 5321 5324 5327 5330 5334 5338 5341 5343 5346
5323 5322 5321 5320 5318 5318 5316 5315 5313 5312 5311 5309 5309 5309 5308 5307 5307 5306 5306 5305 5304 5304 5303 5303 5303 5303 5303 5304 5304 5305 5307 5308 5310 5311 5314 5317 5320 5323 5327 5330 5333 5336 5339
5315 5314 5312 5311 5310 5308 5307 5306 5304 5303 5302 5301 5300 5299 5299 5298 5298 5297 5297 5297 5296 5296 5296 5296 5296 5296 5296 5297 5298 5299 5301 5302 5304 5306 5308 5311 5314 5317 5320 5324 5327 5330 5333
5307 5306 5304 5303 5301 5300 5298 5297 5296 5295 5294 5293 5292 5291 5290 5290 5289 5289 5289 5289 5288 5288 5289 5289 5289 5290 5290 5291 5292 5294 5296 5297 5299 5301 5304 5306 5309 5312 5315 5318 5321 5324 5327
5300 5298 5296 5294 5292 5291 5289 5288 5287 5286 5285 5284 5283 5282 5282 5281 5281 5281 5281 5280 5281 5281 5282 5283 5284 5285 5286 5287 5288 5289 5291 5293 5295 5297 5299 5301 5304 5307 5310 5313 5316 5319 5322